Estación Meteorológica Peña el Pijo (Robertgarden) [ 07/12/20 05:28:04 CEST ]

Fecha Hora Presion(HPa) Temp (°C) Humedad % Rocio (°C) Viento ( m/s) Direccion Lluvia 1Hora(mm) Lluvia 24H(mm) LLuvia Total(mm)
2019-Dec-23 01:08:50 1011.800 - - - - WNW     39.88
2019-Dec-23 02:12:07 1012.200 - - - - WNW     39.88
2019-Dec-23 03:09:32 1012.900 - - - - WNW     39.88
2019-Dec-23 04:11:50 1013.400 - - - - WNW     39.88
2019-Dec-23 05:09:19 1014.100 - - - - WNW     39.88
2019-Dec-23 06:09:29 1014.800 - - - - WNW     39.88
2019-Dec-23 07:09:24 1015.200 - - - - WNW     39.88
2019-Dec-23 08:09:09 1016.200 - - - - WNW     39.88
2019-Dec-23 09:09:14 1016.700 - - - - WNW     39.88
2019-Dec-23 10:08:57 1017.200 - - - - WNW     39.88
2019-Dec-23 11:09:04 1017.700 - - - - WNW     39.88
2019-Dec-23 12:08:57 1017.100 - - - - WNW     39.88
2019-Dec-23 13:09:10 1016.400 - - - - WNW     39.88
2019-Dec-23 14:09:22 1016.200 - - - - WNW     39.88
2019-Dec-23 15:09:08 1016.000 - - - - WNW     39.88
2019-Dec-23 16:09:26 1016.200 - - - - WNW     39.88
2019-Dec-23 17:09:24 1016.000 - - - - WNW     39.88
2019-Dec-23 18:09:12 1016.600 - - - - WNW     39.88
2019-Dec-23 19:09:34 1017.300 - - - - WNW     39.88
2019-Dec-23 20:10:08 1017.500 - - - - WNW     39.88
2019-Dec-23 21:10:17 1018.100 - - - - WNW     39.88
2019-Dec-23 22:09:29 1018.400 - - - - WNW     39.88
2019-Dec-23 23:09:54 1018.300 - - - - WNW     39.88

Temperatura Máxima:    Temperatura Mínima:
Presión Máxima:1018.400 Hpa    Presión Mínima:1011.800 Hpa


Volver